Location: Newark
(46.7000°N, 60.6000°W)
Time: 13:58:59
(UTC+00:00)

Tiros 1 - Visible Passes

Search period start: 30 October 2020 00:00
Search period end: 09 November 2020 00:00
Orbit: 630 x 663 km, 48.4° (Epoch: 29 October)

Date Brightness Start Highest point End Pass type
(mag) Time Alt. Az. Time Alt. Az. Time Alt. Az.
30 Oct 7.1 08:17:14 79° ENE 08:17:14 79° ENE 08:21:37 10° ENE visible
30 Oct 7.2 09:54:54 11° W 09:59:20 72° N 10:03:58 10° E visible
31 Oct 9.9 07:04:32 15° ENE 07:04:32 15° ENE 07:05:25 10° ENE visible
31 Oct 7.1 08:42:12 56° WNW 08:43:04 73° N 08:47:41 10° E visible
01 Nov 9.2 07:29:30 25° ENE 07:29:30 25° ENE 07:31:29 10° ENE visible
01 Nov 7.1 09:07:10 33° WNW 09:09:11 72° N 09:13:49 10° E visible
02 Nov 8.2 07:54:27 41° ENE 07:54:27 41° ENE 07:57:34 10° E visible
02 Nov 7.1 09:32:07 20° WNW 09:35:18 85° NNE 09:39:57 10° ESE visible
03 Nov 7.3 08:19:24 68° NE 08:19:24 68° NE 08:23:41 10° E visible
03 Nov 7.2 09:57:04 12° WNW 10:01:19 68° SSW 10:05:55 10° ESE visible
04 Nov 10.0 07:06:42 14° ENE 07:06:42 14° ENE 07:07:25 10° ENE visible
04 Nov 7.0 08:44:22 60° WNW 08:45:10 83° NNE 08:49:49 10° ESE visible
05 Nov 9.3 07:31:42 23° E 07:31:42 23° E 07:33:33 10° E visible
05 Nov 7.1 09:09:23 36° W 09:11:12 71° SSW 09:15:47 10° ESE visible
06 Nov 8.4 07:56:45 39° E 07:56:45 39° E 07:59:41 10° E visible
06 Nov 7.7 09:34:25 21° W 09:37:04 42° SSW 09:41:26 10° SE visible
07 Nov 7.5 08:21:50 59° SE 08:21:50 59° SE 08:25:41 10° ESE visible
07 Nov 8.5 09:59:31 12° W 10:02:47 23° SW 10:06:26 10° SSE visible
08 Nov 10.1 07:09:19 11° E 07:09:19 11° E 07:09:32 10° E visible
08 Nov 7.5 08:47:00 45° SSW 08:47:00 45° SSW 08:51:22 10° SE visible
